Wind_Speed
6 5 3 2 2 1 2 2 1 2 2 4 5 6 7 7 9 9 11 10 10 11 11 11 11 10 9 7 7 6 6 7 6 6 6 6 6 5 5 5 5 6 6 6
6 5 3 2 1 1 2 2 3 3 2 4 5 5 5 7 8 8 9 9 9 9 10 10 11 10 9 8 7 7 7 7 7 6 6 6 6 5 6 6 7 7 7 7
6 5 4 3 2 2 3 4 4 3 3 4 5 5 5 5 7 8 8 10 8 9 10 11 11 11 11 10 8 7 7 7 7 7 7 6 7 7 7 8 8 8 8 9
8 6 4 3 3 3 4 3 4 4 5 6 6 7 6 6 8 8 9 8 9 10 11 11 11 11 11 11 9 8 8 7 8 8 8 8 9 9 9 10 10 9 10 10
8 6 5 4 3 4 4 4 5 5 6 5 6 8 8 9 9 9 9 8 9 10 11 11 11 11 11 11 11 10 9 9 9 9 9 9 9 10 10 10 11 11 11 12
8 6 4 4 5 6 6 6 6 7 8 6 7 9 9 8 9 9 7 8 9 10 11 11 11 11 12 12 11 11 11 10 10 11 10 10 10 11 11 11 12 12 13 14
10 8 7 6 6 7 8 8 8 8 8 8 9 10 9 9 9 9 10 9 9 10 12 12 12 12 12 12 12 12 12 12 11 12 12 12 12 13 13 13 14 14 15 15
11 9 9 8 7 7 8 9 10 10 10 10 11 10 10 10 10 11 11 12 12 12 13 13 13 12 12 12 12 12 12 12 12 12 13 14 14 14 15 15 15 16 17 17
12 11 9 9 9 9 8 9 10 12 12 13 13 13 13 12 12 12 12 13 14 13 13 14 14 14 13 13 13 13 13 13 13 14 14 15 15 15 16 17 17 18 19 19
14 13 11 11 12 10 10 10 11 13 14 15 14 13 14 14 14 14 14 14 15 14 13 15 15 15 14 14 14 15 15 15 16 16 16 16 16 17 18 18 19 19 20 20
14 14 14 14 14 13 12 13 14 14 15 16 16 14 14 15 15 15 16 16 16 17 15 15 15 15 14 15 16 16 17 17 18 18 18 18 19 19 19 20 21 20 21 22
16 16 16 16 15 16 15 15 16 16 15 16 17 16 14 15 16 16 17 18 18 17 17 17 17 16 16 16 17 18 18 18 19 19 20 20 20 21 21 22 22 22 23 23
17 18 18 17 18 17 17 17 17 17 18 18 18 17 15 15 16 17 19 20 20 19 19 20 19 18 18 18 19 19 20 20 21 20 20 21 21 22 23 23 24 24 24 25
19 20 20 19 19 19 19 19 19 20 20 20 18 18 18 18 18 19 21 21 21 20 21 21 20 21 21 21 21 21 22 22 22 22 22 22 23 24 25 25 25 26 26 26
22 22 22 21 21 21 21 21 21 21 21 21 19 20 20 20 20 21 21 22 21 22 22 22 22 23 23 22 23 23 23 23 24 24 25 25 25 25 26 26 26 27 26 25
23 23 23 23 23 23 24 23 23 22 23 23 23 23 22 23 23 23 23 23 22 22 23 24 23 24 24 24 24 24 25 25 26 27 27 27 27 27 27 26 26 26 26 26
25 25 25 25 25 25 25 24 25 25 25 26 26 26 25 25 24 24 25 25 25 24 24 25 26 26 26 26 26 27 28 27 27 28 28 28 28 28 28 27 26 26 26 27
25 26 26 26 25 26 24 24 25 26 28 28 28 28 28 27 26 26 26 26 27 27 26 26 27 28 27 27 28 29 29 28 28 28 29 29 29 29 28 27 27 28 28 27
24 25 25 26 26 25 24 23 24 26 27 27 28 28 28 27 28 27 27 27 28 28 27 27 28 28 28 28 29 29 28 28 28 28 29 29 29 28 28 27 28 28 28 27
24 24 25 26 27 26 24 23 24 25 27 27 28 29 28 28 28 28 28 29 29 29 30 29 29 29 29 28 28 28 28 28 29 29 29 29 29 28 28 27 27 28 28 28
24 24 25 26 26 27 25 24 24 26 27 27 27 28 28 28 28 28 28 29 30 30 30 30 29 29 30 29 28 28 28 29 29 29 29 29 29 28 27 27 28 28 29 28
25 25 26 26 26 27 25 24 24 25 26 26 27 27 28 28 27 27 28 29 30 30 30 29 29 29 29 28 27 28 28 29 29 29 29 29 28 28 28 28 28 28 29 29
28 28 27 27 28 27 27 26 26 26 27 28 28 28 27 27 26 26 27 28 28 29 29 29 29 28 28 28 28 29 29 29 30 30 30 29 28 28 28 28 28 28 28 29
28 29 29 29 28 28 28 28 28 27 27 27 27 28 28 28 28 28 28 29 29 28 28 28 28 28 27 28 28 29 30 30 31 31 30 29 28 28 28 29 29 30 30 30
28 28 29 29 28 28 28 28 28 28 28 29 29 29 28 28 29 28 28 28 27 27 27 27 27 27 28 28 29 29 30 31 31 30 29 29 29 29 29 29 30 30 30 30
27 28 29 29 29 29 28 29 29 29 29 29 30 30 28 28 29 29 28 28 28 28 28 28 28 28 29 29 30 31 31 31 30 29 29 29 29 30 30 29 30 30 30 30
Wind_Direction
169 160 158 145 131 181 326 328 33 1 357 2 2 7 2 1 7 7 4 10 16 17 16 19 15 10 8 9 11 10 6 1 357 354 350 347 346 337 328 321 317 316 317 315
178 177 160 167 212 254 265 271 267 258 296 341 340 343 354 349 351 352 353 354 1 6 11 17 13 8 3 360 356 350 349 347 342 340 337 334 337 334 329 321 316 311 311 307
190 183 189 198 233 256 247 246 258 277 294 293 299 311 329 340 329 330 336 341 350 0 4 5 3 3 359 351 341 336 334 335 334 330 325 323 327 326 320 314 308 307 310 307
174 184 212 235 242 257 258 246 260 269 285 291 293 301 313 316 323 323 324 328 338 350 354 352 350 351 350 346 334 329 327 329 327 324 322 319 320 317 314 312 306 304 306 305
175 191 217 239 243 234 227 235 251 262 276 280 287 291 300 314 315 316 312 324 331 341 345 342 341 344 344 344 341 332 328 325 322 319 316 313 311 310 311 313 307 301 301 301
192 194 206 222 236 239 235 234 238 261 269 263 276 285 294 307 310 314 311 325 332 330 336 337 338 339 340 340 339 337 333 327 320 316 314 310 308 306 308 309 308 303 300 299
209 206 207 217 230 240 236 238 241 255 270 275 272 281 294 305 308 310 314 321 327 325 323 325 330 333 333 332 331 330 329 329 323 317 313 310 307 306 305 308 307 303 302 303
217 213 213 219 232 242 235 241 251 262 269 275 272 280 290 296 300 303 307 310 314 316 317 320 325 328 328 326 326 325 323 324 321 316 311 309 308 306 305 305 306 303 304 305
225 221 213 222 236 243 242 243 251 260 264 271 274 276 280 282 293 295 301 306 310 309 312 315 321 321 319 319 319 318 317 318 317 314 312 312 310 307 305 303 303 303 304 302
232 228 221 220 230 241 249 244 252 257 263 267 268 272 279 285 292 293 299 302 304 305 307 310 314 314 311 312 312 313 313 312 311 309 308 307 307 304 303 302 301 301 300 300
238 237 231 227 231 237 244 252 259 266 265 266 272 275 279 284 290 297 300 301 299 302 304 309 311 312 310 309 308 308 309 309 310 308 306 304 303 302 301 302 302 301 301 299
238 240 238 235 238 244 243 254 261 267 268 270 277 280 281 282 291 296 298 301 299 304 308 308 311 309 308 307 304 304 304 305 306 304 302 302 303 304 303 302 300 300 300 300
240 242 241 238 242 247 246 252 258 264 269 270 275 281 280 286 290 294 296 299 301 303 306 310 307 305 307 306 303 303 303 303 304 303 302 301 301 301 301 300 299 298 297 297
242 245 244 242 243 249 249 251 255 261 268 269 274 278 280 282 285 289 293 294 297 301 302 304 304 305 304 304 304 303 303 303 303 303 303 302 300 300 300 299 298 298 297 296
243 246 246 242 244 248 251 254 260 265 266 270 274 277 280 280 283 288 291 291 291 295 297 295 297 301 302 302 303 302 303 304 304 303 303 302 301 300 299 298 298 298 298 298
246 249 249 242 244 249 251 255 262 265 265 269 273 279 284 285 281 285 289 291 290 293 295 294 294 300 303 302 300 301 303 302 302 302 301 300 299 298 298 297 298 298 298 298
248 252 253 252 250 251 251 254 257 260 265 269 274 279 283 285 284 286 288 289 290 291 292 294 296 298 299 298 298 300 301 301 301 301 301 299 298 298 297 296 297 298 297 296
249 253 256 256 254 251 256 258 260 264 267 269 272 276 279 283 283 283 284 287 289 291 293 295 294 294 295 296 295 297 298 298 300 301 301 299 298 296 296 297 298 299 297 295
250 252 256 258 258 257 257 260 262 265 269 270 272 275 279 282 283 284 286 289 291 292 294 295 295 295 294 294 294 294 295 297 298 298 298 298 298 298 298 298 297 299 296 294
254 255 256 259 260 260 262 263 264 265 267 268 270 272 277 279 280 281 283 284 287 289 291 293 293 294 293 294 295 296 296 297 298 298 297 297 298 299 299 298 298 297 297 296
253 257 259 260 262 263 264 264 264 264 269 271 271 272 276 279 280 280 281 283 285 287 288 290 291 291 292 292 295 296 296 297 298 297 296 296 297 297 296 297 297 298 298 296
255 258 261 262 264 265 266 267 265 266 269 271 273 274 275 278 279 281 283 285 286 286 288 289 290 290 291 293 295 296 295 296 298 298 298 296 296 296 295 296 298 299 299 298
256 259 261 262 264 266 267 267 268 268 269 272 274 275 276 277 280 283 285 286 287 288 288 289 290 290 291 292 293 295 296 298 298 299 298 296 295 294 295 296 297 299 299 298
257 260 261 264 265 267 267 268 269 271 272 273 273 274 275 279 282 284 286 286 287 289 290 290 290 291 291 292 293 294 295 297 298 298 297 295 295 294 295 296 296 297 299 299
257 259 261 263 265 268 270 270 269 270 273 275 276 276 276 278 280 283 285 286 287 290 292 292 292 293 293 292 292 293 294 295 296 296 296 295 294 294 294 295 297 298 298 298
255 259 261 262 265 267 269 270 271 272 273 275 276 276 277 277 279 281 284 287 289 290 291 291 291 291 291 292 293 294 295 295 294 294 294 294 294 294 294 294 296 297 296 296
Height
5928 5930 5930 5929 5929 5930 5929 5929 5930 5930 5930 5930 5929 5929 5928 5926 5925 5924 5923 5923 5922 5920 5919 5917 5916 5915 5914 5913 5911 5910 5909 5907 5906 5905 5904 5903 5901 5900 5900 5899 5898 5897 5895 5894
5928 5929 5929 5929 5928 5928 5928 5928 5929 5930 5929 5929 5928 5928 5927 5926 5925 5924 5923 5923 5922 5920 5919 5917 5916 5915 5914 5912 5911 5909 5908 5906 5905 5904 5903 5902 5900 5899 5898 5897 5896 5895 5893 5893
5926 5928 5928 5928 5928 5928 5928 5928 5928 5928 5928 5928 5928 5927 5927 5926 5925 5924 5923 5921 5920 5919 5918 5917 5916 5914 5913 5911 5910 5908 5907 5906 5904 5903 5901 5900 5899 5898 5897 5896 5894 5893 5891 5890
5924 5926 5926 5926 5926 5927 5927 5928 5928 5928 5928 5927 5927 5927 5927 5925 5924 5923 5921 5920 5920 5919 5918 5916 5915 5914 5912 5909 5908 5907 5905 5904 5903 5901 5900 5899 5897 5896 5895 5894 5892 5891 5889 5888
5923 5924 5924 5924 5925 5925 5926 5926 5926 5927 5926 5926 5925 5925 5926 5924 5922 5921 5920 5919 5919 5917 5916 5915 5914 5912 5911 5909 5907 5905 5904 5902 5901 5900 5898 5897 5895 5894 5892 5891 5890 5888 5887 5885
5921 5921 5922 5923 5923 5923 5924 5925 5925 5925 5925 5924 5924 5923 5924 5922 5921 5919 5918 5917 5916 5915 5915 5914 5912 5911 5909 5907 5906 5904 5903 5901 5899 5898 5896 5894 5893 5891 5890 5888 5887 5886 5884 5882
5919 5920 5920 5921 5921 5921 5922 5923 5923 5922 5922 5922 5921 5921 5921 5920 5919 5918 5917 5915 5914 5913 5913 5912 5910 5909 5907 5905 5904 5902 5900 5899 5897 5895 5894 5892 5890 5888 5887 5885 5884 5882 5880 5878
5916 5918 5919 5919 5920 5920 5920 5921 5921 5921 5920 5919 5919 5918 5919 5917 5917 5916 5915 5913 5912 5911 5910 5909 5908 5906 5905 5903 5902 5900 5898 5897 5895 5893 5891 5889 5887 5886 5884 5882 5880 5878 5876 5874
5914 5915 5917 5917 5917 5918 5918 5918 5918 5918 5917 5917 5916 5916 5915 5914 5914 5914 5913 5912 5910 5909 5907 5906 5905 5903 5902 5901 5899 5897 5896 5894 5892 5890 5888 5886 5884 5882 5880 5878 5876 5874 5872 5870
5911 5912 5913 5914 5915 5915 5915 5915 5916 5915 5914 5913 5913 5913 5912 5912 5911 5910 5910 5909 5907 5906 5904 5903 5902 5900 5899 5897 5895 5894 5892 5890 5888 5887 5884 5883 5881 5879 5877 5874 5872 5870 5868 5866
5908 5909 5911 5911 5911 5912 5912 5913 5912 5911 5911 5910 5909 5912 5909 5909 5908 5907 5907 5905 5903 5902 5900 5899 5898 5897 5895 5893 5891 5890 5888 5886 5884 5882 5880 5878 5876 5874 5872 5870 5867 5865 5863 5860
5904 5905 5906 5908 5908 5908 5908 5908 5908 5908 5907 5906 5906 5909 5906 5905 5904 5903 5903 5901 5900 5897 5895 5895 5894 5893 5891 5889 5888 5886 5884 5882 5880 5878 5876 5874 5871 5869 5867 5864 5862 5860 5857 5854
5900 5901 5903 5904 5906 5905 5904 5904 5904 5904 5904 5903 5902 5905 5902 5901 5900 5899 5898 5897 5896 5894 5893 5891 5889 5888 5886 5885 5884 5882 5880 5878 5876 5873 5871 5869 5866 5864 5861 5859 5856 5853 5851 5848
5896 5897 5899 5900 5900 5900 5900 5900 5900 5900 5899 5899 5899 5899 5898 5896 5895 5895 5894 5892 5891 5890 5888 5886 5885 5884 5882 5880 5878 5876 5874 5872 5870 5868 5866 5863 5860 5858 5855 5852 5850 5846 5844 5841
5891 5892 5893 5895 5895 5895 5895 5895 5895 5895 5894 5894 5895 5894 5893 5892 5891 5890 5889 5888 5887 5886 5884 5882 5880 5878 5876 5874 5873 5871 5869 5867 5864 5862 5859 5857 5854 5851 5848 5845 5843 5840 5837 5834
5885 5886 5888 5889 5890 5890 5890 5891 5891 5890 5889 5889 5889 5888 5888 5887 5886 5886 5885 5884 5882 5881 5879 5877 5875 5873 5871 5869 5867 5865 5863 5861 5858 5855 5853 5850 5847 5844 5841 5839 5836 5833 5830 5827
5879 5881 5882 5883 5884 5884 5885 5886 5885 5885 5884 5884 5883 5884 5883 5882 5880 5880 5879 5878 5876 5875 5874 5872 5870 5867 5865 5863 5861 5859 5857 5855 5852 5849 5845 5842 5840 5837 5834 5831 5829 5826 5823 5820
5874 5875 5876 5876 5878 5878 5882 5880 5879 5879 5878 5878 5878 5877 5876 5875 5874 5874 5873 5871 5870 5868 5867 5865 5863 5861 5859 5857 5855 5852 5850 5847 5845 5842 5838 5835 5832 5830 5827 5824 5821 5819 5816 5813
5867 5868 5869 5870 5870 5872 5874 5874 5873 5873 5871 5871 5871 5870 5869 5868 5868 5867 5866 5865 5863 5862 5860 5858 5856 5854 5851 5849 5847 5845 5843 5840 5837 5834 5831 5828 5825 5822 5820 5817 5814 5811 5808 5806
5861 5862 5863 5863 5863 5865 5868 5868 5866 5866 5865 5865 5864 5863 5862 5862 5861 5861 5859 5857 5856 5855 5853 5851 5849 5846 5844 5842 5840 5838 5835 5833 5830 5827 5824 5821 5818 5815 5812 5810 5807 5804 5801 5798
5855 5855 5856 5856 5856 5857 5860 5860 5860 5860 5859 5858 5857 5856 5856 5855 5854 5853 5851 5850 5848 5847 5845 5843 5841 5838 5836 5835 5833 5830 5828 5825 5822 5819 5816 5813 5810 5807 5805 5802 5800 5797 5794 5791
5848 5848 5849 5849 5850 5852 5852 5852 5853 5852 5851 5850 5850 5849 5848 5848 5846 5845 5844 5842 5840 5838 5837 5835 5833 5830 5827 5825 5824 5822 5820 5817 5814 5811 5808 5805 5803 5800 5797 5795 5792 5789 5786 5783
5840 5842 5842 5843 5844 5844 5843 5844 5844 5843 5843 5843 5842 5841 5841 5840 5839 5837 5836 5834 5832 5830 5828 5826 5824 5822 5821 5819 5817 5815 5812 5809 5806 5803 5800 5798 5795 5792 5790 5787 5784 5781 5778 5775
5833 5833 5834 5835 5835 5835 5836 5836 5836 5836 5836 5835 5834 5834 5833 5832 5830 5829 5828 5826 5824 5822 5820 5818 5816 5815 5813 5811 5809 5807 5805 5802 5798 5796 5793 5790 5787 5785 5782 5779 5776 5773 5770 5767
5826 5826 5826 5827 5827 5827 5828 5828 5828 5828 5828 5827 5826 5826 5825 5824 5822 5820 5819 5818 5816 5815 5813 5811 5809 5807 5806 5804 5802 5799 5796 5793 5791 5788 5785 5782 5779 5777 5774 5771 5768 5765 5762 5759
5818 5818 5819 5819 5820 5820 5820 5820 5820 5820 5820 5819 5819 5818 5817 5816 5815 5813 5811 5809 5808 5807 5805 5803 5801 5800 5798 5796 5793 5791 5788 5785 5782 5779 5777 5774 5771 5769 5766 5763 5760 5757 5754 5751